[[[{"header":{"parameterUnit":"kt","parameterCategory":2,"dx":1,"dy":1,"la1":30.253999710083008,"la2":30.299108505249023,"lo1":-89.0895004272461,"lo2":-89.04439544677734,"nx":28,"ny":28,"refTime":"2022-10-10T21:00:00:Z","depth":0,"parameterNumber":1,"parameterNumberName":"U-component_of_WINDS"},"data":[-8.1848,-8.1949,-8.1934,-8.2042,-8.2046,-8.2116,-8.2135,-8.2159,-8.2173,-8.2254,-8.2297,-8.229,-8.2295,-8.2341,-8.2385,-8.238,-8.2398,-8.2448,-8.2432,-8.2229,-8.22,-8.2172,-8.2144,-8.2454,-8.2454,-8.2641,-8.2643,-8.2644,-8.1704,-8.1709,-8.1763,-8.1802,-8.1847,-8.179,-8.1816,-8.1856,-8.192,-8.1938,-8.198,-8.2049,-8.21,-8.2087,-8.2133,-8.2178,-8.2151,-8.2191,-8.2184,-8.2184,-8.197,-8.1941,-8.2213,-8.2213,-8.2213,-8.2212,-8.2212,-8.2212,-8.1436,-8.1499,-8.1512,-8.1568,-8.1584,-8.161,-8.1665,-8.1654,-8.1704,-8.175,-8.172,-8.179,-8.1803,-8.1848,-8.1858,-8.1911,-8.1862,-8.1898,-8.1906,-8.1914,-8.1925,-8.1651,-8.1919,-8.1918,-8.1917,-8.1916,-8.1916,0,-8.1233,-8.1215,-8.1263,-8.1308,-8.1347,-8.1379,-8.1405,-8.1439,-8.139,-8.1433,-8.1493,-8.1524,-8.1586,-8.1638,-8.1676,-8.1677,-8.1615,-8.161,-8.1633,-8.1645,-8.1653,-8.1644,-8.1289,-8.1599,-8.1596,-8.1594,-8.1593,-8.1592,-8.0956,-8.1032,-8.1036,-8.1073,-8.1081,-8.1142,-8.1173,-8.1123,-8.1158,-8.1181,-8.1238,-8.1291,-8.133,-8.1428,-8.1409,-8.1454,-8.1422,-8.1542,-8.1427,-8.1439,-8.1417,-8.141,-8.1415,-8.1562,-8.1566,-8.1569,-8.1572,0,-8.0801,-8.077,-8.088,-8.0876,-8.0877,-8.0958,-8.0952,-8.1012,-8.0992,-8.107,-8.1086,-8.1054,-8.1112,-8.1073,-8.1132,-8.1109,-8.1239,-8.1211,-8.1234,-8.1223,-8.1323,-8.1312,-8.1661,-8.1703,-8.1388,-8.1391,-8.1394,0,-8.0549,-8.065,-8.0596,-8.0662,-8.0772,-8.0717,-8.0827,-8.082,-8.0829,-8.089,-8.0816,-8.0874,-8.0815,-8.0868,-8.0834,-8.0934,-8.0946,-8.0932,-8.092,-8.0934,-8.0935,-8.0944,-8.0927,-8.0898,-8.0896,-8.0895,-8.0893,0,-8.0303,-8.0394,-8.0501,-8.0515,-8.0517,-8.0569,-8.0572,-8.058,-8.061,-8.0643,-8.0661,-8.0705,-8.0727,-8.0761,-8.0716,-8.0639,-8.0838,-8.0723,-8.0822,-8.0824,-8.0862,-8.0859,-8.1186,-8.0891,-8.0891,-8.089,-8.0889,0,-8.009,-8.0127,-8.0289,-8.0287,-8.0312,-8.0383,-8.042,-8.0472,-8.0485,-8.0468,-8.0493,-8.0435,-8.0522,-8.041,-8.0527,-8.0439,-8.0465,-8.046,-8.0467,-8.0465,-8.0338,-8.052,-8.0842,-8.087,-8.0474,-8.047,-8.0467,0,-7.9816,-7.997,-7.9922,-8.0076,-8.014,-8.0049,-8.0127,-8.0141,-8.0124,-8.0174,-8.0155,-8.0213,-8.0122,-8.0133,-8.0198,-8.0178,-8.0293,-8.0162,-8.023,-8.0233,-8.0223,-8.052,-8.0573,-8.0777,-8.0423,-8.0427,-8.0431,0,-7.9596,-7.9597,-7.9628,-7.964,-7.9649,-7.9702,-7.9793,-7.9838,-7.9874,-7.9899,-7.9969,-8.0053,-7.9985,-8.0005,-7.9961,-8.003,-8.0214,-7.9947,-7.9946,-7.9992,-8.0398,-8.0448,-8.0483,-8.0169,-8.0174,-8.0179,-8.0395,0,-7.9273,-7.9345,-7.9429,-7.9459,-7.9494,-7.9589,-7.9543,-7.9586,-7.954,-7.9517,-7.9624,-7.9622,-7.9666,-7.9696,-7.965,-7.9822,-7.9784,-7.9712,-7.9592,-7.9791,-7.986,-7.9889,-7.9493,-7.949,-7.9487,-7.9484,0,0,-7.9014,-7.9115,-7.9057,-7.9141,-7.9166,-7.9066,-7.9171,-7.9184,-7.9211,-7.9229,-7.9165,-7.928,-7.928,-7.9412,-7.9471,-7.949,-7.9515,-7.9446,-7.9698,-7.9723,-7.9745,-7.982,-7.9851,-7.9478,-7.9477,-7.9476,-7.9475,0,-7.8884,-7.889,-7.8995,-7.9006,-7.9019,-7.899,-7.9016,-7.9009,-7.8999,-7.9103,-7.9015,-7.9073,-7.9166,-7.9176,-7.9194,-7.9432,-7.9359,-7.945,-7.9591,-7.9669,-7.9697,-7.9722,-7.9802,-7.9832,-7.9467,-7.9468,-7.9468,0,-7.8654,-7.8651,-7.8697,-7.875,-7.8757,-7.8825,-7.8691,-7.877,-7.8819,-7.87,-7.8803,-7.8796,-7.8806,-7.8939,-7.8997,-7.8938,-7.922,-7.9123,-7.9142,-7.9145,-7.9217,-7.9251,-7.9282,-7.8879,-7.8877,-7.8875,0,0,-7.8547,-7.8614,-7.8591,-7.8718,-7.8729,-7.8686,-7.8717,-7.8672,-7.8684,-7.8689,-7.8675,-7.8689,-7.8741,-7.8777,-7.8824,-7.8978,-7.8973,-7.9053,-7.9081,-7.9103,-7.9119,-7.9197,-7.9231,-7.8868,-7.8868,-7.8868,0,0,-7.8495,-7.8473,-7.8423,-7.8565,-7.8581,-7.8563,-7.8642,-7.858,-7.8617,-7.86,-7.8526,-7.8526,-7.8649,-7.8644,-7.8556,-7.878,-7.8665,-7.8684,-7.8777,-7.8812,-7.8839,-7.8834,-7.8413,0,0,0,0,0,-7.8335,-7.8475,-7.8431,-7.8447,-7.8512,-7.859,-7.8597,-7.8539,-7.8458,-7.8523,-7.8501,-7.8422,-7.8581,-7.8501,-7.8518,-7.8614,-7.8778,-7.8794,-7.8809,-7.8964,-7.9001,-7.9032,0,0,0,0,0,0,-7.8341,-7.8361,-7.8427,-7.8417,-7.8431,-7.8584,-7.8434,-7.8422,-7.845,-7.8433,-7.8429,-7.8421,-7.8372,-7.8489,-7.8505,-7.8597,-7.8408,-7.8784,-7.8797,-7.881,-7.8977,-7.9007,-7.9032,0,0,0,0,0,-7.8345,-7.8362,-7.848,-7.8414,-7.8426,-7.8383,-7.8428,-7.8417,-7.8437,-7.8403,-7.8393,-7.8391,-7.8377,-7.8386,-7.8498,-7.8591,-7.8396,-7.8403,-7.8793,-7.8803,-7.8813,-7.8991,0,0,0,0,0,0,-7.8348,-7.8351,-7.8481,-7.8483,-7.8356,-7.8373,-7.8374,-7.8413,-7.8403,-7.8396,-7.8361,-7.8348,-7.8382,-7.8388,-7.8396,-7.8593,-7.8387,-7.8393,-7.8397,-7.8801,-7.8809,-7.8817,0,0,0,0,0,0,-7.8342,-7.8354,-7.8482,-7.8412,-7.8404,-7.8365,-7.8366,-7.8452,-7.8404,-7.8361,-7.835,-7.8355,-7.8369,-7.839,-7.8396,-7.8532,-7.838,-7.8386,-7.839,-7.8393,-7.8808,-7.8814,0,0,0,0,0,0,-7.8346,-7.8355,-7.8411,-7.8405,-7.8399,-7.841,-7.8439,-7.8508,-7.8346,-7.8363,-7.833,-7.8322,-7.8374,-7.8378,-7.8396,-7.8531,-7.8532,-7.838,-7.8384,-7.8387,-7.8389,0,0,0,0,0,0,0,-7.8349,-7.8298,-7.8473,-7.84,-7.8394,-7.8496,-7.8497,-7.8497,-7.8345,-7.8338,-7.8332,-7.8325,-7.8345,-7.8352,-7.8359,-7.8531,0,0,-7.8379,-7.8382,0,0,0,0,0,0,0,0,-7.8292,-7.8296,-7.8473,-7.8474,-7.8474,-7.8496,-7.8497,-7.8497,-7.8343,-7.8338,-7.8333,-7.8328,-7.8347,-7.8352,-7.8358,0,0,0,0,0,0,0,0,0,0,0,0,0,0,0,-7.8473,-7.8474,0,-7.8496,-7.8497,-7.8497,-7.8343,-7.8338,-7.8334,-7.833,-7.8349,-7.8353,-7.8357,0,0,0,0,0,0,0,0,0,0,0,0,0,0,0,0,0,0,0,0,0,0,0,0,0,0,0,0,0,0,0,0,0,0,0,0,0,0,0,0,0,0,0,0,0,0,0,0,0,0,0,0,0,0,0,0,0,0,0,0,0,0,0,0,0,0,0,0,0]}],[{"header":{"parameterUnit":"kt","parameterCategory":2,"dx":1,"dy":1,"la1":30.253999710083008,"la2":30.299108505249023,"lo1":-89.0895004272461,"lo2":-89.04439544677734,"nx":28,"ny":28,"refTime":"2022-10-10T21:00:00:Z","depth":0,"parameterNumber":2,"parameterNumberName":"V-component_of_WINDS"},"data":[2.7333,2.7373,2.7388,2.7439,2.746,2.7497,2.7513,2.7537,2.7557,2.7601,2.7627,2.7642,2.7664,2.7697,2.7724,2.7729,2.774,2.7747,2.7751,2.7711,2.7706,2.7701,2.7693,2.775,2.775,2.7792,2.7792,2.7792,2.731,2.7332,2.7363,2.7401,2.7427,2.743,2.7459,2.748,2.7511,2.7536,2.7562,2.7599,2.7629,2.7648,2.7678,2.7695,2.7695,2.7702,2.77,2.7703,2.7661,2.7653,2.7701,2.7701,2.7701,2.7701,2.7701,2.7701,2.7272,2.7295,2.7325,2.7358,2.738,2.7405,2.7428,2.7445,2.7473,2.7507,2.7513,2.7547,2.7571,2.7609,2.7623,2.7649,2.7642,2.7651,2.7653,2.7655,2.7658,2.7599,2.7653,2.7653,2.7653,2.7653,2.7653,0,2.7247,2.7257,2.7285,2.7319,2.7342,2.7368,2.7392,2.7406,2.7424,2.7445,2.7477,2.7496,2.7532,2.7561,2.7589,2.76,2.7599,2.76,2.7606,2.7604,2.7601,2.7604,2.7535,2.7597,2.7596,2.7596,2.7596,2.7596,2.7209,2.7233,2.7269,2.7287,2.7303,2.7331,2.735,2.7364,2.7382,2.7412,2.743,2.7459,2.7482,2.7527,2.754,2.7566,2.7565,2.7588,2.7568,2.7568,2.7566,2.7564,2.7567,2.7591,2.7591,2.7592,2.7592,0,2.7187,2.7205,2.7245,2.7275,2.7284,2.7307,2.7332,2.7353,2.7365,2.7395,2.7403,2.742,2.7448,2.7458,2.7489,2.7494,2.7532,2.753,2.7526,2.7526,2.7548,2.7546,2.7616,2.7626,2.7568,2.7568,2.7569,0,2.7162,2.719,2.7216,2.7237,2.727,2.7283,2.7314,2.7327,2.7347,2.7371,2.7373,2.7394,2.7403,2.7425,2.7431,2.7463,2.7468,2.7473,2.7474,2.7473,2.7472,2.748,2.7477,2.7474,2.7474,2.7473,2.7473,0,2.7125,2.717,2.7205,2.7218,2.725,2.7266,2.7279,2.73,2.7316,2.7339,2.7349,2.7373,2.7386,2.7404,2.7411,2.7397,2.745,2.7432,2.7454,2.7454,2.7463,2.7462,2.7524,2.7472,2.7472,2.7472,2.7472,0,2.7105,2.713,2.7177,2.7205,2.7216,2.7237,2.7263,2.7284,2.7305,2.731,2.7327,2.7327,2.7355,2.7338,2.7376,2.7357,2.737,2.7376,2.7378,2.7379,2.7359,2.7393,2.7451,2.7457,2.7384,2.7383,2.7383,0,2.7059,2.711,2.712,2.7163,2.7188,2.719,2.7214,2.7231,2.7241,2.7262,2.727,2.7292,2.7281,2.7288,2.7307,2.7315,2.734,2.7312,2.734,2.7341,2.7336,2.739,2.7396,2.7438,2.7373,2.7374,2.7375,0,2.7025,2.7063,2.7069,2.7084,2.711,2.7128,2.7155,2.718,2.7194,2.7211,2.7234,2.7263,2.7257,2.7268,2.7268,2.7287,2.7324,2.7275,2.7276,2.7285,2.7368,2.7375,2.7382,2.732,2.7321,2.7322,2.7368,0,2.6994,2.7019,2.7038,2.7066,2.7082,2.7108,2.7118,2.7134,2.7135,2.7142,2.7173,2.7185,2.7206,2.7215,2.7213,2.7252,2.7246,2.7237,2.7218,2.7253,2.7268,2.7274,2.7195,2.7195,2.7194,2.7194,0,0,2.6946,2.6982,2.6988,2.7014,2.7028,2.7026,2.7053,2.7065,2.7088,2.7097,2.7088,2.713,2.7138,2.7174,2.7186,2.7193,2.72,2.7186,2.7236,2.7241,2.7245,2.7261,2.7268,2.7193,2.7193,2.7193,2.7193,0,2.6936,2.695,2.6976,2.699,2.701,2.7017,2.7023,2.7041,2.7046,2.7075,2.707,2.7089,2.7118,2.713,2.7139,2.7183,2.7176,2.7189,2.7211,2.7232,2.7237,2.7241,2.7258,2.7264,2.7192,2.7192,2.7192,0,2.6905,2.692,2.6933,2.6962,2.6974,2.6996,2.6982,2.7004,2.7021,2.7011,2.7039,2.7046,2.7059,2.7091,2.7104,2.7095,2.7154,2.7134,2.7137,2.7138,2.7158,2.7164,2.717,2.7096,2.7095,2.7095,0,0,2.6894,2.6917,2.6933,2.696,2.6969,2.6977,2.6989,2.699,2.7004,2.7009,2.7016,2.7028,2.7046,2.7057,2.7074,2.7107,2.711,2.7122,2.7127,2.7131,2.7133,2.7154,2.7161,2.7094,2.7094,2.7094,0,0,2.6888,2.6909,2.6908,2.6941,2.6956,2.6971,2.6987,2.6984,2.7,2.6997,2.6996,2.6999,2.7028,2.7033,2.7015,2.7067,2.7049,2.7053,2.7062,2.7068,2.7072,2.707,2.6997,0,0,0,0,0,2.6882,2.6908,2.6906,2.6913,2.6946,2.6973,2.6977,2.6979,2.6968,2.6981,2.6986,2.6977,2.7024,2.7009,2.7014,2.7032,2.7077,2.708,2.7083,2.7103,2.7109,2.7114,0,0,0,0,0,0,2.6884,2.6892,2.6905,2.6922,2.6929,2.6972,2.6953,2.6955,2.6966,2.6964,2.6976,2.6977,2.6977,2.7006,2.7011,2.7028,2.6996,2.7078,2.7081,2.7083,2.7105,2.711,2.7114,0,0,0,0,0,2.6886,2.6893,2.6947,2.6921,2.6928,2.6937,2.6952,2.6953,2.6962,2.6969,2.697,2.6962,2.6977,2.6981,2.7009,2.7026,2.6992,2.6994,2.708,2.7082,2.7084,2.7108,0,0,0,0,0,0,2.6888,2.6893,2.6948,2.695,2.6911,2.6934,2.6938,2.6952,2.6966,2.6967,2.6954,2.6953,2.6978,2.6981,2.6984,2.7026,2.699,2.6992,2.6993,2.7081,2.7083,2.7084,0,0,0,0,0,0,2.6889,2.6895,2.6949,2.6936,2.6936,2.6932,2.6936,2.6957,2.6966,2.695,2.6949,2.6954,2.6972,2.6981,2.6983,2.7017,2.6988,2.699,2.6991,2.6991,2.7083,2.7084,0,0,0,0,0,0,2.6892,2.6896,2.6935,2.6936,2.6936,2.6958,2.6951,2.6984,2.6958,2.6949,2.6956,2.6954,2.6972,2.6975,2.6983,2.7015,2.7016,2.6988,2.6989,2.699,2.699,0,0,0,0,0,0,0,2.6893,2.6863,2.6937,2.6936,2.6936,2.6968,2.6969,2.6969,2.6958,2.6957,2.6956,2.6955,2.6978,2.698,2.6982,2.7014,0,0,2.6988,2.6989,0,0,0,0,0,0,0,0,2.6861,2.6863,2.6937,2.6937,2.6938,2.6968,2.6969,2.6969,2.6958,2.6957,2.6956,2.6955,2.6979,2.698,2.6982,0,0,0,0,0,0,0,0,0,0,0,0,0,0,0,2.6937,2.6937,0,2.6969,2.6969,2.6969,2.6958,2.6957,2.6956,2.6956,2.6979,2.698,2.6982,0,0,0,0,0,0,0,0,0,0,0,0,0,0,0,0,0,0,0,0,0,0,0,0,0,0,0,0,0,0,0,0,0,0,0,0,0,0,0,0,0,0,0,0,0,0,0,0,0,0,0,0,0,0,0,0,0,0,0,0,0,0,0,0,0,0,0,0,0]}]]]